[[{"header":{"parameterUnit":"m.s-1","parameterCategory":1,"la1":30.2991,"la2":30.254,"lo1":-89.0895,"lo2":-89.0444,"dy":0.0017,"dx":0.0017,"nx":28,"ny":28,"refTime":"2024-02-15T09:00:00:Z","depth":0,"parameterNumber":2,"parameterNumberName":"U-component_of_WINDS"},"data":[0,0,0,0,0,0,0,0,0,0,0,0,0,0,0,0,0,0,0,0,0,0,0,0,0,0,0,0,0,0,0,0,0,0,0,0,0,0,0,0,0,0,0,0,0,0,0,0,0,0,0,0,0,0,0,0,0,0,0.0283,0.0283,0,0.0321,0.0321,0.0322,0.0341,0.0342,0.0342,0.0342,0.0381,0.0382,0.0383,0,0,0,0,0,0,0,0,0,0,0,0,0,0.0226,0.0227,0.0283,0.0283,0.0284,0.0321,0.0321,0.0322,0.0341,0.0342,0.0342,0.0342,0.0381,0.0382,0.0383,0,0,0,0,0,0,0,0,0,0,0,0,0,0.0256,0.0227,0.0283,0.0298,0.03,0.0321,0.0322,0.0322,0.0341,0.0342,0.0342,0.0342,0.038,0.0382,0.0383,0.0393,0,0,0.0388,0.0389,0,0,0,0,0,0,0,0,0.0254,0.0258,0.0295,0.0297,0.0299,0.0327,0.0316,0.0346,0.0341,0.0326,0.0342,0.0342,0.0363,0.0366,0.0373,0.0394,0.0396,0.0388,0.0389,0.039,0.039,0,0,0,0,0,0,0,0.0252,0.0256,0.0298,0.0296,0.0298,0.0302,0.0307,0.0322,0.0344,0.0327,0.0329,0.0333,0.0364,0.0372,0.0374,0.0397,0.0388,0.039,0.0391,0.0391,0.0425,0.0425,0,0,0,0,0,0,0.0247,0.0254,0.0297,0.0299,0.0276,0.0303,0.0308,0.0318,0.0344,0.0348,0.0333,0.0334,0.0369,0.0372,0.0376,0.0387,0.039,0.0391,0.0392,0.0425,0.0425,0.0425,0,0,0,0,0,0,0.0246,0.0251,0.0295,0.0277,0.0283,0.0304,0.0315,0.0318,0.0326,0.0348,0.0352,0.0336,0.0369,0.0373,0.0388,0.0389,0.0392,0.0394,0.0425,0.0425,0.0425,0.041,0,0,0,0,0,0,0.0244,0.025,0.0255,0.0277,0.0284,0.0307,0.0315,0.0319,0.0329,0.033,0.0352,0.0356,0.0369,0.0385,0.0389,0.0391,0.0395,0.0425,0.0425,0.0425,0.0411,0.041,0.0409,0,0,0,0,0,0.0242,0.0249,0.0255,0.026,0.029,0.0307,0.0311,0.0326,0.0329,0.0333,0.0346,0.0355,0.0388,0.0387,0.0391,0.0393,0.0425,0.0425,0.0425,0.0411,0.041,0.0409,0,0,0,0,0,0,0.0227,0.0253,0.0259,0.0274,0.0288,0.031,0.0316,0.0324,0.0338,0.0339,0.0357,0.0362,0.0374,0.0385,0.0383,0.0402,0.0407,0.0408,0.0395,0.0394,0.0393,0.039,0.0396,0,0,0,0,0,0.0226,0.0238,0.0259,0.027,0.0277,0.0295,0.0303,0.0313,0.0329,0.0335,0.035,0.0365,0.0378,0.0386,0.04,0.0412,0.0416,0.0415,0.0414,0.0413,0.0414,0.042,0.0419,0.0425,0.0425,0.0425,0,0,0.0223,0.0238,0.0245,0.0267,0.028,0.0291,0.03,0.0313,0.0321,0.0337,0.0351,0.0362,0.038,0.0392,0.0399,0.0402,0.0413,0.0413,0.0412,0.0414,0.0419,0.0419,0.0418,0.0425,0.0425,0.0425,0,0,0.0223,0.0236,0.0246,0.0257,0.0275,0.0287,0.0289,0.031,0.0317,0.0332,0.0343,0.0353,0.0376,0.0388,0.0397,0.0398,0.0407,0.0402,0.0397,0.0402,0.0402,0.0401,0.0401,0.0401,0.0402,0.0402,0.0402,0,0.0217,0.0235,0.025,0.0261,0.027,0.0284,0.0293,0.0304,0.0325,0.0331,0.0334,0.0361,0.0374,0.0389,0.0389,0.0396,0.0398,0.04,0.04,0.04,0.04,0.04,0.04,0.0402,0.0402,0.0402,0.0402,0,0.0226,0.0238,0.0244,0.0263,0.0273,0.0283,0.0299,0.0307,0.0315,0.0326,0.0339,0.0355,0.0371,0.0375,0.0384,0.039,0.0391,0.0397,0.0403,0.0399,0.0399,0.0399,0.0401,0.0401,0.0401,0.0401,0,0,0.022,0.0246,0.0248,0.0256,0.0275,0.0285,0.0295,0.031,0.0316,0.0329,0.0338,0.0356,0.036,0.037,0.038,0.0385,0.0383,0.039,0.039,0.0387,0.039,0.0386,0.0386,0.0389,0.0389,0.0389,0.0389,0,0.0223,0.0242,0.0254,0.0268,0.0278,0.029,0.0299,0.0311,0.0321,0.0331,0.0342,0.0354,0.036,0.0366,0.037,0.0382,0.0384,0.0383,0.0396,0.0397,0.0392,0.0386,0.0382,0.0381,0.0389,0.0389,0.0389,0,0.023,0.0242,0.0256,0.0273,0.0278,0.0285,0.0299,0.0308,0.0322,0.0329,0.0339,0.0348,0.0358,0.0362,0.0375,0.0374,0.038,0.0386,0.0387,0.0389,0.0393,0.0388,0.0381,0.0381,0.0389,0.0389,0.0389,0,0.0223,0.0243,0.0254,0.0261,0.028,0.0285,0.0293,0.0307,0.0314,0.0326,0.0331,0.0344,0.0351,0.036,0.0373,0.0374,0.0385,0.039,0.039,0.039,0.0392,0.0392,0.0387,0.0396,0.0396,0.0396,0.0396,0,0.0225,0.0234,0.0251,0.0258,0.0267,0.028,0.0288,0.0298,0.0309,0.0317,0.0328,0.0335,0.0351,0.036,0.037,0.0379,0.0382,0.0387,0.039,0.0386,0.0386,0.0391,0.0391,0.0396,0.0396,0.0396,0.0396,0,0.022,0.0232,0.0245,0.0261,0.0265,0.0271,0.0285,0.0292,0.0301,0.0311,0.0314,0.0329,0.034,0.0353,0.0368,0.0375,0.0383,0.0386,0.0378,0.0379,0.0379,0.0379,0.0377,0.0377,0.0386,0.0386,0.0386,0,0.0221,0.0227,0.0244,0.025,0.0258,0.0267,0.0274,0.0287,0.0294,0.0308,0.0313,0.0324,0.0334,0.0351,0.0363,0.0374,0.0378,0.0376,0.038,0.0376,0.0377,0.0377,0.0377,0.0376,0.0376,0.0376,0.0375,0,0.0221,0.0226,0.0236,0.0247,0.0255,0.0265,0.0275,0.0279,0.0293,0.03,0.0311,0.0319,0.0333,0.0344,0.0356,0.0365,0.0372,0.0374,0.0375,0.0371,0.0366,0.0368,0.0375,0.0374,0.0374,0.0374,0.0375,0.0375,0.0219,0.0224,0.0236,0.0246,0.0254,0.0263,0.0269,0.0279,0.0288,0.03,0.0307,0.0317,0.0329,0.0346,0.0353,0.0361,0.0364,0.0365,0.0365,0.0365,0.0364,0.0364,0.0363,0.0364,0.0364,0.0364,0.0364,0,0.0218,0.0226,0.0235,0.0248,0.0256,0.0261,0.0272,0.0278,0.0286,0.0296,0.0305,0.0316,0.0326,0.0338,0.0349,0.0353,0.0356,0.0355,0.0355,0.0356,0.0361,0.0359,0.0352,0.0352,0.0352,0.0352,0.0352,0.0352,0.0219,0.0229,0.0234,0.0247,0.0255,0.0264,0.027,0.0277,0.0285,0.0297,0.0305,0.0312,0.0323,0.0334,0.0343,0.0346,0.0349,0.0347,0.0351,0.0355,0.0356,0.0357,0.0356,0.0347,0.0347,0.0345,0.0345,0.0345]},{"header":{"parameterUnit":"m.s-1","parameterCategory":1,"la1":30.2991,"la2":30.254,"lo1":-89.0895,"lo2":-89.0444,"dy":0.0017,"dx":0.0017,"nx":28,"ny":28,"refTime":"2024-02-15T09:00:00:Z","depth":0,"parameterNumber":3,"parameterNumberName":"V-component_of_WINDS"},"data":[0,0,0,0,0,0,0,0,0,0,0,0,0,0,0,0,0,0,0,0,0,0,0,0,0,0,0,0,0,0,0,0,0,0,0,0,0,0,0,0,0,0,0,0,0,0,0,0,0,0,0,0,0,0,0,0,0,0,1.0015,1.0015,0,0.996,0.9959,0.9958,0.9937,0.9937,0.9937,0.9937,0.9875,0.9873,0.9871,0,0,0,0,0,0,0,0,0,0,0,0,0,1.0097,1.0096,1.0015,1.0014,1.0014,0.996,0.9959,0.9958,0.9937,0.9937,0.9937,0.9937,0.9875,0.9873,0.9871,0,0,0,0,0,0,0,0,0,0,0,0,0,1.0053,1.0095,1.0015,0.9997,0.9994,0.996,0.9959,0.9958,0.9936,0.9937,0.9937,0.9937,0.9876,0.9873,0.9871,0.9849,0,0,0.9862,0.9861,0,0,0,0,0,0,0,0,1.0056,1.005,1.0,0.9998,0.9995,0.9955,0.9965,0.9921,0.9936,0.9958,0.9937,0.9937,0.9901,0.9896,0.9885,0.9846,0.9843,0.9862,0.9861,0.9859,0.9859,0,0,0,0,0,0,0,1.0059,1.0053,0.9993,0.9999,0.9996,0.9989,0.9983,0.9957,0.9929,0.9956,0.9955,0.9949,0.99,0.9888,0.9883,0.9842,0.9862,0.986,0.9858,0.9857,0.9781,0.9781,0,0,0,0,0,0,1.0066,1.0055,0.9995,0.9991,1.0027,0.9988,0.9981,0.9968,0.9929,0.9923,0.9949,0.9948,0.9892,0.9887,0.9881,0.9852,0.9859,0.9857,0.9855,0.9782,0.9781,0.9781,0,0,0,0,0,0,1.0068,1.0061,0.9997,1.0023,1.0014,0.9986,0.9971,0.9967,0.9955,0.9923,0.9918,0.9942,0.9892,0.9885,0.9857,0.985,0.9856,0.9853,0.9782,0.9781,0.9781,0.9795,0,0,0,0,0,0,1.007,1.0062,1.0054,1.0023,1.0013,0.9976,0.9971,0.9965,0.9951,0.9949,0.9915,0.991,0.9892,0.9861,0.9855,0.9846,0.9851,0.9783,0.9782,0.9781,0.9795,0.9795,0.9795,0,0,0,0,0,1.0073,1.006,1.0054,1.0047,1.0004,0.9975,0.9969,0.9951,0.995,0.9942,0.9921,0.9911,0.9852,0.9859,0.9851,0.9842,0.9783,0.9782,0.9781,0.9795,0.9795,0.9795,0,0,0,0,0,0,1.0089,1.0055,1.0049,1.0025,1.0003,0.9972,0.9961,0.9951,0.9928,0.9927,0.9903,0.9896,0.987,0.9853,0.9861,0.9818,0.9816,0.9814,0.983,0.983,0.983,0.9834,0.9849,0,0,0,0,0,1.009,1.0072,1.0042,1.0024,1.0014,0.9989,0.9976,0.9964,0.994,0.993,0.9907,0.9883,0.9859,0.9843,0.9819,0.9793,0.9784,0.9782,0.9782,0.9782,0.978,0.9764,0.9762,0.9778,0.9778,0.9778,0,0,1.0092,1.0071,1.006,1.0027,1.0009,0.9988,0.9982,0.9961,0.9945,0.9926,0.9899,0.9881,0.9852,0.9825,0.9812,0.981,0.9774,0.9781,0.9782,0.9779,0.9763,0.9761,0.976,0.9777,0.9777,0.9777,0,0,1.0084,1.0067,1.005,1.0032,1.0005,0.9989,0.9984,0.9954,0.9942,0.9915,0.99,0.988,0.9839,0.9819,0.9803,0.9787,0.9776,0.978,0.9779,0.9764,0.9762,0.9761,0.9754,0.9752,0.9778,0.9778,0.9778,0,1.0088,1.0059,1.0041,1.0021,1.0006,0.999,0.9971,0.9954,0.992,0.9909,0.9908,0.9856,0.9836,0.9803,0.9799,0.9787,0.978,0.9784,0.9764,0.9763,0.9761,0.9754,0.9752,0.9779,0.9779,0.9779,0.9779,0,1.0066,1.0045,1.0034,1.0004,0.9987,0.9968,0.9945,0.9931,0.9919,0.9902,0.9874,0.9848,0.9819,0.981,0.9798,0.9775,0.9775,0.9769,0.9767,0.9761,0.9754,0.9751,0.978,0.9779,0.9779,0.9779,0,0,1.0066,1.0026,1.0022,1.0008,0.9977,0.996,0.9939,0.9912,0.9899,0.9876,0.9856,0.9822,0.9817,0.9799,0.9785,0.9771,0.9758,0.9767,0.9766,0.9765,0.973,0.9733,0.9731,0.9751,0.9751,0.975,0.9732,0,1.0054,1.0018,1.0001,0.9971,0.9951,0.9935,0.9917,0.9895,0.9878,0.9857,0.9838,0.9814,0.981,0.9799,0.9785,0.9763,0.9751,0.9764,0.9731,0.973,0.9738,0.9727,0.9731,0.9715,0.9729,0.9729,0.9728,0,1.0034,1.0013,0.9982,0.9953,0.9944,0.9928,0.9901,0.9882,0.9856,0.9845,0.9825,0.9811,0.9786,0.9786,0.9751,0.9761,0.9746,0.9733,0.9732,0.9727,0.9728,0.9722,0.971,0.9707,0.9724,0.9724,0.9725,0,1.0037,1.0,0.9977,0.9965,0.9931,0.9919,0.9904,0.9879,0.9863,0.9839,0.9828,0.98,0.9785,0.9763,0.9741,0.9744,0.9708,0.9706,0.9696,0.9696,0.9688,0.9689,0.9673,0.968,0.968,0.968,0.9681,0,1.0024,1.0006,0.9977,0.9963,0.9941,0.9921,0.9899,0.9882,0.986,0.984,0.9824,0.9805,0.9778,0.9756,0.9738,0.9711,0.9704,0.9693,0.9688,0.9694,0.9695,0.9683,0.9684,0.968,0.968,0.968,0.968,0,1.0023,1.0004,0.9977,0.9947,0.9939,0.9924,0.9897,0.9881,0.9864,0.984,0.9833,0.9805,0.9778,0.9754,0.9717,0.9706,0.9677,0.9672,0.9686,0.9684,0.9674,0.9675,0.9649,0.9644,0.9656,0.9656,0.9656,0,1.0016,1.0002,0.9971,0.9957,0.9943,0.9922,0.9906,0.9885,0.9869,0.9837,0.9825,0.9797,0.9773,0.973,0.9705,0.9677,0.967,0.9663,0.9666,0.9672,0.9669,0.967,0.9667,0.9663,0.9663,0.9663,0.9663,0,1.0006,0.9997,0.9976,0.9951,0.9933,0.9912,0.9891,0.988,0.9855,0.9837,0.981,0.9792,0.9755,0.9727,0.9696,0.9677,0.9665,0.9662,0.9658,0.9663,0.9672,0.9666,0.9685,0.9663,0.9663,0.9663,0.9663,0.9663,1.0001,0.9987,0.9963,0.9939,0.9921,0.9902,0.9885,0.9866,0.9844,0.9814,0.9802,0.9774,0.9746,0.9704,0.9686,0.9662,0.966,0.9654,0.9653,0.9651,0.9652,0.9677,0.9656,0.9656,0.9656,0.9656,0.9656,0,0.9988,0.9972,0.9951,0.9922,0.9903,0.9896,0.9871,0.9855,0.9832,0.9808,0.9786,0.9753,0.9726,0.9699,0.9669,0.9655,0.9649,0.9648,0.9648,0.9644,0.9656,0.9662,0.9654,0.9654,0.9654,0.9654,0.9654,0.9654,0.998,0.9956,0.9944,0.991,0.9893,0.9867,0.9853,0.9834,0.9815,0.9781,0.9759,0.9742,0.9716,0.9685,0.9658,0.9651,0.964,0.9641,0.9632,0.9643,0.9643,0.9644,0.9649,0.9639,0.9639,0.9622,0.9622,0.9621]}]]